GW1524 Weather Reports


Display with metric or nautical units.
time (UTC)temp
F
wind
direction
speed
MPH
gust
MPH
rain 1hr
in
rain 24hr
in
rain mn
in
humidity
%
barometer
mb
20260506172526 58 229 1.0 2.0 0.14 0.19 0.17 99 1007.1
20260506171525 58 260 1.0 2.0 0.12 0.17 0.15 99 1007.2
20260506170551 58 204 1.0 2.0 0.10 0.15 0.12 99 1007.3
20260506165526 58 264 0.0 1.0 0.08 0.13 0.10 99 1007.7
20260506164616 58 245 1.0 3.0 0.06 0.10 0.08 99 1007.9
20260506163707 58 244 1.0 1.0 0.04 0.08 0.05 99 1007.9
20260506162527 58 238 1.0 4.0 0.02 0.06 0.03 99 1007.9
20260506161527 59 242 1.0 4.0 0.02 0.05 0.03 100 1008.0
20260506160540 59 224 1.0 3.0 0.02 0.05 0.02 99 1008.1
20260506155541 59 186 1.0 2.0 0.01 0.04 0.02 99 1008.0
20260506154527 59 226 0.0 2.0 0.01 0.04 0.02 100 1008.0
20260506153528 59 247 1.0 2.0 0.01 0.04 0.01 100 1008.0
20260506152528 59 95 0.0 2.0 0.01 0.04 0.01 99 1008.1
20260506151528 59 214 0.0 2.0 0.01 0.03 0.01 99 1008.3
20260506150528 59 277 0.0 0.0 0.01 0.03 0.01 98 1008.6
20260506145528 60 149 1.0 3.0 0.01 0.03 0.01 97 1008.7
20260506144528 60 170 1.0 3.0 0.00 0.03 0.00 94 1008.8
20260506143529 61 233 1.0 2.0 0.00 0.03 0.00 90 1008.8
20260506142529 61 151 2.0 4.0 0.00 0.02 0.00 90 1008.7
20260506141529 61 226 2.0 5.0 0.00 0.02 0.00 90 1008.6
20260506140529 61 203 1.0 2.0 0.00 0.02 0.00 89 1008.5
20260506135530 61 243 1.0 3.0 0.00 0.02 0.00 89 1008.3
20260506134529 61 214 2.0 5.0 0.00 0.02 0.00 89 1008.2
20260506133530 61 236 2.0 4.0 0.00 0.02 0.00 89 1008.1
20260506132530 60 240 2.0 4.0 0.00 0.02 0.00 91 1008.1
20260506131555 59 231 1.0 2.0 0.00 0.02 0.00 92 1008.2
20260506130530 59 187 1.0 3.0 0.00 0.02 0.00 93 1008.2
20260506125531 59 208 1.0 2.0 0.00 0.02 0.00 93 1008.5
20260506124531 58 187 1.0 3.0 0.00 0.02 0.00 93 1008.7
20260506123531 58 173 1.0 2.0 0.00 0.02 0.00 93 1009.0
20260506122531 58 178 1.0 2.0 0.00 0.02 0.00 94 1009.0
20260506121531 58 190 1.0 2.0 0.00 0.02 0.00 94 1009.0
20260506120532 57 229 1.0 2.0 0.00 0.02 0.00 93 1009.0
20260506115532 57 208 1.0 2.0 0.00 0.02 0.00 93 1009.0
20260506114532 57 187 2.0 2.0 0.00 0.02 0.00 93 1009.0
20260506113532 57 211 2.0 3.0 0.00 0.02 0.00 93 1008.9
20260506112557 56 207 1.0 3.0 0.00 0.02 0.00 94 1008.6
20260506111533 56 216 1.0 2.0 0.00 0.02 0.00 94 1008.7
20260506110533 56 218 2.0 2.0 0.00 0.02 0.00 94 1008.9
20260506105533 56 229 2.0 3.0 0.00 0.02 0.00 93 1008.9
20260506104533 55 217 1.0 3.0 0.00 0.02 0.00 94 1008.9
20260506103558 54 223 1.0 2.0 0.00 0.02 0.00 95 1008.9
20260506102533 54 223 1.0 2.0 0.00 0.02 0.00 96 1008.7
20260506101534 53 216 2.0 3.0 0.00 0.02 0.00 97 1008.6
20260506100534 52 208 3.0 3.0 0.00 0.02 0.00 99 1008.6
20260506095534 51 195 2.0 3.0 0.00 0.02 0.00 99 1008.5
20260506094534 51 194 2.0 3.0 0.00 0.02 0.00 99 1008.4
20260506093534 51 195 2.0 3.0 0.00 0.02 0.00 99 1008.4
20260506092600 50 193 3.0 3.0 0.00 0.02 0.00 99 1008.4
20260506091535 50 207 2.0 3.0 0.00 0.02 0.00 99 1008.4
20260506090534 51 203 3.0 3.0 0.00 0.02 0.00 99 1008.5
20260506085535 51 200 2.0 3.0 0.00 0.02 0.00 99 1008.7
20260506084535 51 208 3.0 4.0 0.00 0.02 0.00 99 1008.7
20260506083521 51 205 3.0 4.0 0.00 0.02 0.00 99 1008.6
20260506082546 51 200 3.0 4.0 0.00 0.02 0.00 99 1008.6
20260506081546 51 205 3.0 3.0 0.00 0.02 0.00 99 1008.8
20260506080611 51 206 3.0 4.0 0.00 0.02 0.00 99 1008.9
20260506073522 52 207 2.0 3.0 0.00 0.02 0.00 99 1009.1
20260506072522 52 194 1.0 2.0 0.00 0.02 0.00 99 1009.2
20260506071522 53 206 2.0 3.0 0.00 0.02 0.00 99 1009.3
20260506070522 53 208 2.0 3.0 0.00 0.02 0.00 99 1009.4
20260506061523 54 206 2.0 3.0 0.00 0.02 0.00 100 1009.4
20260506060603 54 236 0.0 1.0 0.00 0.02 0.00 99 1009.4
20260506050549 55 324 0.0 2.0 0.00 0.02 0.00 99 1009.7
20260506044524 56 205 1.0 2.0 0.00 0.02 0.00 99 1009.8
20260506043524 56 183 0.0 0.0 0.00 0.02 0.00 100 1009.7
20260506042525 57 229 1.0 2.0 0.00 0.02 0.00 100 1009.7
20260506041525 57 207 0.0 1.0 0.00 0.02 0.00 100 1009.7
20260506040525 57 39 1.0 2.0 0.00 0.02 0.00 99 1009.6
20260506035526 58 131 1.0 2.0 0.00 0.02 0.02 99 1009.4
20260506034551 58 352 0.0 1.0 0.00 0.02 0.02 99 1009.4
20260506033525 58 157 0.0 1.0 0.00 0.02 0.02 98 1009.4
20260506032551 58 234 0.0 1.0 0.00 0.02 0.02 98 1009.3
20260506031526 58 209 0.0 2.0 0.00 0.02 0.02 97 1009.3
20260506030526 58 224 1.0 2.0 0.00 0.02 0.02 97 1009.4
20260506025527 58 199 1.0 2.0 0.00 0.02 0.02 97 1009.5
20260506024527 58 223 2.0 2.0 0.00 0.02 0.02 97 1009.5
20260506023552 58 234 1.0 2.0 0.00 0.02 0.02 96 1009.6
20260506022527 59 4 0.0 1.0 0.00 0.02 0.02 95 1009.7
20260506021528 59 127 0.0 0.0 0.00 0.02 0.02 93 1009.7
20260506020522 59 115 0.0 1.0 0.00 0.02 0.02 93 1009.8
20260506015522 59 344 0.0 1.0 0.00 0.02 0.02 93 1009.6
20260506014522 59 262 0.0 1.0 0.00 0.02 0.02 92 1009.5
20260506013523 59 227 2.0 3.0 0.00 0.02 0.02 92 1009.3
20260506012613 60 209 1.0 2.0 0.00 0.02 0.02 90 1009.4
20260506011522 60 181 1.0 3.0 0.00 0.02 0.02 89 1009.5
20260506010523 60 185 0.0 2.0 0.00 0.02 0.02 87 1009.2
20260506005523 61 227 0.0 1.0 0.00 0.02 0.02 86 1009.1
20260506004521 61 265 0.0 1.0 0.00 0.02 0.02 84 1009.0
20260506003521 61 286 1.0 2.0 0.00 0.02 0.02 84 1008.9
20260506002521 61 229 2.0 3.0 0.00 0.02 0.02 84 1008.7
20260506001521 62 215 2.0 4.0 0.00 0.02 0.02 83 1008.5
20260506000521 62 15 0.0 1.0 0.00 0.02 0.02 82 1008.3
20260505235521 62 11 1.0 2.0 0.00 0.02 0.02 81 1008.3
20260505234522 63 293 0.0 2.0 0.00 0.02 0.02 77 1008.4
20260505233522 63 17 1.0 2.0 0.00 0.02 0.02 75 1008.6
20260505232521 63 341 2.0 3.0 0.01 0.02 0.02 75 1008.5
20260505231522 63 6 2.0 4.0 0.01 0.02 0.02 75 1008.4
20260505230522 64 35 4.0 6.0 0.02 0.02 0.02 74 1008.1
20260505225548 64 42 2.0 4.0 0.02 0.02 0.02 74 1008.6
20260505224548 65 13 3.0 8.0 0.02 0.02 0.02 74 1008.6
20260505223523 68 349 5.0 9.0 0.02 0.02 0.02 68 1008.0
20260505222523 72 250 4.0 12.0 0.01 0.01 0.01 54 1007.7
20260505221520 74 224 4.0 10.0 0.00 0.00 0.00 43 1006.6
20260505220524 74 224 2.0 5.0 0.00 0.00 0.00 41 1006.5
20260505215521 75 211 3.0 7.0 0.00 0.00 0.00 41 1006.3
20260505214521 75 216 2.0 7.0 0.00 0.00 0.00 40 1006.2
20260505213521 75 189 3.0 7.0 0.00 0.00 0.00 40 1006.1
20260505212521 76 175 3.0 7.0 0.00 0.00 0.00 41 1006.2
20260505211546 76 228 4.0 11.0 0.00 0.00 0.00 40 1006.1
20260505210522 77 242 5.0 8.0 0.00 0.00 0.00 40 1005.8
20260505205522 78 237 4.0 8.0 0.00 0.00 0.00 40 1005.6
20260505204547 78 237 4.0 12.0 0.00 0.00 0.00 40 1005.6
20260505203522 78 221 4.0 10.0 0.00 0.00 0.00 40 1006.0
20260505202522 78 237 4.0 8.0 0.00 0.00 0.00 40 1006.1
20260505201522 78 215 4.0 6.0 0.00 0.00 0.00 40 1006.0
20260505200523 78 226 3.0 9.0 0.00 0.00 0.00 41 1005.9
20260505195523 78 234 4.0 8.0 0.00 0.00 0.00 40 1005.9
20260505194523 78 237 4.0 8.0 0.00 0.00 0.00 41 1006.0
20260505193523 78 232 5.0 11.0 0.00 0.00 0.00 40 1006.1
20260505192520 78 253 6.0 11.0 0.00 0.00 0.00 40 1006.2
20260505191520 77 235 5.0 10.0 0.00 0.00 0.00 41 1006.4
20260505190521 76 236 4.0 8.0 0.00 0.00 0.00 42 1006.3
20260505185521 78 238 5.0 10.0 0.00 0.00 0.00 41 1006.5
20260505184521 79 235 3.0 7.0 0.00 0.00 0.00 41 1006.4
20260505183521 79 239 4.0 8.0 0.00 0.00 0.00 40 1006.5
20260505182522 79 208 4.0 8.0 0.00 0.00 0.00 40 1006.7
20260505181521 79 235 4.0 10.0 0.00 0.00 0.00 41 1006.7
20260505180547 79 238 5.0 9.0 0.00 0.00 0.00 41 1006.9
20260505175522 78 187 4.0 7.0 0.00 0.00 0.00 42 1007.1
20260505174522 78 238 5.0 9.0 0.00 0.00 0.00 42 1007.4
20260505173522 77 212 3.0 9.0 0.00 0.00 0.00 43 1007.5